www.pogodaiklimat.ru

Погода и климат >> Архив погоды >> Россия >> Свердловская область >> Тугулым


ПОГОДА в Тугулыме

  • Прогноз погоды в Тугулыме
  • Монитор погоды в Тугулыме

АРХИВ ПОГОДЫ в Тугулыме

Время (UTC), дата Ветер
(напр.,м/с)
 
Видим.   Явления Облачность Т
(С)
Тd
(С)
f
(%)
Тe
(С)
Тes
(С)
Комфортность P
(гПа)
Po
(гПа)
Тmin
(С)
Tmax
(С)
R
(мм)
R24
(мм)
S
(см)
00 13.06 СЗ 3 20 км 9/9 600 м
[Cb cap]
+10.2 +6.3 77 +8 +8 1004.1 993.3
03 13.06 СЗ 5
{10}
20 км в посл. час ливневой дождь 9/9 600 м
[Cb cap]
+9.5 +5.0 73 +6 +7 1004.8 993.9 +8.9 0.3
06 13.06 СЗ 5-10
{12}
20 км {ливн. осадки} 9/9 600 м
[Cb cap]
+10.7 +4.2 64 +8 +9 1006.8 996.0
09 13.06 СЗ 5
{11}
20 км 9/9 600 м
[Cb cap]
+10.2 +3.0 61 +7 +8 1008.5 997.6
12 13.06 СЗ 5-10
{10}
20 км 9/9 600 м
[Cb cap]
+12.0 +0.6 46 +10 +10 1008.5 997.7
15 13.06 СЗ 2
{10}
20 км в посл. час ливневой дождь 6/6 600 м
[Sc diur, vesp]
+9.3 +4.3 71 +8 +8 1009.5 998.5 +13.2
18 13.06 СЗ 2 10 км {ливн. осадки} 9/9 600 м
[Sc]
+7.7 +4.4 80 +6 +6 1010.6 999.6
21 13.06 СЗ 1 10 км 3/3 600 м
[Sc]
+3.1 +1.5 89 +2 +2 1011.0 999.8
00 14.06 З 2 20 км 9/8 600 м
[Sc Ac trans]
+5.3 +2.3 81 +3 +3 1012.4 1001.3
03 14.06 З 3 20 км 3/0
[Ac cast]
+9.3 +3.1 65 +7 +11 1010.2 999.2 +3.0 0.3
06 14.06 З 5
{10}
20 км 8/8 600 м
[Cu med, cong]
+13.1 +2.3 48 +11 +14 1009.5 998.7
09 14.06 СЗ 5
{10}
20 км 8/8 600 м
[Cu med, cong]
+15.6 +1.3 38 +15 +16 1007.4 996.7
12 14.06 СЗ 2 20 км 9/9 600 м
[Sc]
+15.2 +1.3 39 +15 +16 1008.0 997.3
15 14.06 СВ 1 20 км 9/9 600 м
[Sc]
+13.2 +2.3 48 +14 +14 1008.0 997.2 +16.0
18 14.06 В 2 10 км 9/0
[Ac As Ci fib]
+8.8 +4.4 74 +7 +7 1009.6 998.7
21 14.06 В 2 10 км 9/0
[Ci fib]
+6.4 +3.3 81 +4 +4 1008.9 997.9
00 15.06 В 2 20 км 9/9 600 м
[Sc]
+5.9 +3.2 83 +4 +4 1009.7 998.7
03 15.06 СВ 2 20 км 9/9 600 м
[Sc]
+9.6 +3.5 66 +8 +9 1008.2 997.3 +5.4
06 15.06 С 1 20 км в посл. час ливневой дождь 1 балл +14.5 +5.6 55 +15 +30 опасность
простуды
1008.0 997.3
09 15.06 С 1
{10}
20 км {ливн. осадки} 6/6 600 м
[Cu med, cong]
+16.6 +4.3 44 +18 +24 1006.3 995.7
12 15.06 СЗ 4 20 км {ливн. осадки} 9/8 600 м
[Cu med, cong Cc]
+17.3 +0.8 33 +17 +18 1006.1 995.5
15 15.06 СЗ 2 20 км 8/4 600 м
[Cu med, cong Ci fib]
+15.9 +2.4 40 +16 +16 1006.3 995.6 +19.0 2
18 15.06 штиль 0 10 км 2 балла +6.0 +4.0 87 +5 +5 1007.0 996.0
21 15.06 штиль 0 10 км 9/0
[Ac lent Ci sp]
+3.2 +2.1 92 +2 +2 1005.4 994.3
00 16.06 штиль 0 20 км 9 баллов +5.2 +3.9 91 +4 +4 1005.7 994.7
03 16.06 З 3 20 км 9/0
[Ac trans Ci sp]
+12.9 +5.2 59 +12 +15 1003.3 992.5 +3.0
06 16.06 З 5
{11}
20 км в посл. час ливневой дождь 9/8 600 м
[Cb cap Ci sp]
+16.1 +5.7 50 +15 +16 1002.6 992.0
09 16.06 З 3
{12}
20 км в посл. час ливневой дождь 9/8 600 м
[Cb cap Ac trans Ci sp]
+13.8 +9.9 77 +13 +15 1002.4 991.7
12 16.06 З 3 20 км в посл. час ливневой дождь 10/10 600 м
[Cb cap]
+12.0 +10.0 88 +10 +10 1002.7 992.0
15 16.06 З 2 20 км 9/3 600 м
[Cb cap Ac trans Ci fib]
+11.4 +9.0 85 +10 +10 1003.2 992.5 +17.6 2
18 16.06 З 1 10 км 9 баллов +6.2 +5.2 93 +5 +5 1005.7 994.7
21 16.06 СЗ 1 10 км 9/0
[Ac trans Ci fib]
+6.2 +4.9 91 +5 +5 1004.1 993.1
00 17.06 З 1 20 км 9 баллов +5.7 +4.5 92 +4 +4 1005.7 994.7
03 17.06 З 1 20 км 9/0
[Ac trans]
+11.0 +7.1 77 +11 +14 1005.2 994.4 +5.6
06 17.06 З 2 20 км 7 баллов +15.0 +5.5 53 +15 +19 1005.3 994.7
09 17.06 Ю 23 20 км 8/8 600 м
[Cu med, cong]
+15.9 +3.5 43 +13 +13 1004.9 994.2
12 17.06 З 4 20 км 9 баллов +15.8 +2.9 42 +15 +16 1005.3 994.7
15 17.06 ЮЗ 1 20 км 9/0
[Ac trans Ci sp]
+14.5 +5.9 56 +15 +15 1004.5 993.8 +17.1
18 17.06 штиль 0 10 км 9 баллов +10.9 +7.2 78 +10 +10 1005.5 994.7
21 17.06 штиль 0 10 км 9/9 600 м
[Sc]
+9.4 +6.8 84 +9 +9 1003.2 992.3
00 18.06 З 1 20 км 9 баллов +8.5 +6.8 89 +8 +8 1004.2 993.3
03 18.06 З 1 20 км слаб. дождь 9/9 600 м
[Sc As op]
+10.4 +8.9 90 +10 +11 1003.7 992.9 +8.1 0.3
06 18.06 СЗ 3 20 км в посл. час дождь 9 баллов +13.7 +8.9 73 +13 +14 1005.4 994.7
09 18.06 СВ 1
{10}
20 км {ливн. осадки} 9/8 600 м
[Cb cap Ci fib]
+12.3 +10.2 87 +12 +15 1005.2 994.4
12 18.06 С 4 20 км {ливн. осадки} 9/9 600 м
[Cb cap]
+15.7 +5.0 49 +15 +15 1005.7 995.0
15 18.06 СЗ 2 20 км 3/0
[Ci sp]
+14.6 +4.5 51 +14 +15 1006.6 995.9 +17.1 3
18 18.06 З 1 10 км 2 балла +6.6 +5.2 91 +5 +5 1008.3 997.3
21 18.06 З 2 10 км 9/9 600 м
[Sc]
+8.3 +5.9 85 +6 +6 1007.5 996.6
00 19.06 З 1 20 км ясно +6.6 +4.8 88 +6 +6 1008.3 997.3
03 19.06 З 2 20 км 9/9 600 м
[Sc]
+12.6 +7.9 73 +12 +12 1008.5 997.7 +5.7
06 19.06 З 2 20 км 9 баллов +15.6 +9.0 65 +16 +17 1009.3 998.7
09 19.06 З 4 20 км 9/8 600 м
[Cu med, cong Ac cast Ci sp]
+19.9 +9.6 51 +21 +23 комфорт 1008.4 997.9
12 19.06 З 4
{11}
20 км 6/3 600 м
[Cu hum Ac trans]
+22.4 +7.0 37 +23 +26 комфорт 1007.9 997.5
15 19.06 З 2 20 км {метель} 9/9 1000 м
[Sc diur, vesp]
+18.7 +7.9 49 +20 +20 1008.4 997.8 +22.4
18 19.06 ЮЗ 2 10 км {ливн. осадки} 9/9 1000 м
[Sc]
+16.5 +8.1 58 +17 +17 1009.0 998.3
21 19.06 З 2 10 км 9/3 1000 м
[Sc Ac trans]
+13.3 +8.1 71 +13 +13 1009.0 998.2

 

Местоположение метеостанции Тугулым (Свердловская область, Россия): широта 57.07 долгота 64.67 высота над уровнем моря 90 м.

В архиве по умолчанию представлена погода в Тугулыме за последнюю неделю. Архивные данные за месяц целиком и за предыдущие месяцы, начиная с января 2011 года, Вы можете получить, выбрав интересующий диапазон дат из раскрывающегося списка и нажав кнопку "Ввод!".


*Определитесь, кто Вы:
робот инопланетянин человек

Внимание! Время в таблицах - всемирное. Для получения местного времени необходимо прибавить поправку, которая равна 5 ч.

Смотрите также архив погоды в соседних городах и на ближайших метеорологических станциях:

Погода в Тюмени (Тюменская область, Россия) (46 км)
Погода в Шатрово (Курганская область, Россия) (61 км)
Погода в Бутке (Свердловская область, Россия) (67 км)
Погода в Исетском (Тюменская область, Россия) (78 км)
Погода в Ялуторовске (Тюменская область, Россия) (111 км)
Погода в Нижней Тавде (Тюменская область, Россия) (112 км)
Погода в Тавде (Свердловская область, Россия) (117 км)
Погода в Ирбите (Свердловская область, Россия) (119 км)
Погода в Камышлове (Свердловская область, Россия) (121 км)
Погода в Туринске (Свердловская область, Россия) (124 км)

Пояснения к столбцам:

Ветер - указаны скорость ветра в м/с - средняя за 10 мин, порывы в срок и между сроками (в фигурных скобках) и направление, откуда дует ветер: С - северный, СВ - северо-восточный, В - восточный, ЮВ - юго-восточный, Ю - южный, ЮЗ - юго-западный, З - западный, СЗ - северо-западный.
Видимость - горизонтальная дальность видимости в метрах или километрах. При видимости от 1 до 10 км при отсутствии осадков обычно наблюдается дымка, при ухудшении видимости до 1 км и менее - туман. В сухую погоду видимость может ухудшаться дымом, пылью или мглою.
Явления - указаны атмосферные явления, наблюдавшиеся в срок или в последний час перед сроком; фигурными скобками обозначены явления, наблюдавшиеся между сроками (за 1-3 часа до срока); квадратными скобками обозначены град или гололедные отложения с указанием их диаметра в мм.
Облачность - указаны через наклонную черту общая и нижняя облачность в баллах и высота нижней границы облаков в метрах; квадратными скобками обозначены формы облаков: Ci - перистые, Cs - перисто-слоистые, Cc - перисто-кучевые, Ac - высококучевые, As - высокослоистые, Sc - слоисто-кучевые, Ns - слоисто-дождевые, Cu - кучевые, Cb - кучево-дождевые. Подробнее классификацию облаков см. в Атласе облаков (PDF).
T - Температура воздуха - температура, измеренная на высоте 2 м над землей.
Td - Температура точки росы - температура, при понижении до которой содержащийся в воздухе водяной пар достигнет насыщения.
f - Относительная влажность воздуха - влажноcть воздуха, измеренная на высоте 2 м над землей.
Te - Эффективная температура - температура, которую ощущает одетый по сезону человек в тени. Характеристика душности погоды. При расчете учитывается влияние влажности воздуха и скорости ветра на теплоощущения человека.
Tes - Эффективная температура на солнце - температура, которую ощущает человек, с поправкой на солнечный нагрев. Характеристика знойности погоды. Зависит от высоты солнца над горизонтом, облачности и скорости ветра. Ночью, в пасмурную погоду, а также при ветре 12 м/с и более поправка равна нулю.
P - Атмосферное давление - приведенное к уровню моря атмосферное давление.
Po - Атмосферное давление - измеренное на уровне метеостанции атмосферное давление.
Tmin - Минимальная температура - минимум температуры воздуха на высоте 2 м над землей.
Tmax - Максимальная температура - максимум температуры воздуха на высоте 2 м над землей.
R - Количество осадков - Количество выпавших осадков за период времени, мм. При наведении курсора мыши на число - период времени, за который выпало указанное количество осадков.
R24 - Количество осадков - Количество выпавших осадков за 24 часа, мм.
S - Снежный покров - Высота снежного покрова, см. При наведении курсора мыши на число - состояние снежного покрова и степень покрытия местности в баллах.